TimeMDT,TemperatureF,Dew PointF,Humidity,Sea Level PressureIn,VisibilityMPH,Wind Direction,Wind SpeedMPH,Gust SpeedMPH,PrecipitationIn,Events,Conditions,WindDirDegrees,DateUTC
12:15 AM,59.0,41.0,51,30.39,10.0,ESE,6.9,-,N/A,,Clear,120,2013-07-22 06:15:00
12:35 AM,55.4,41.0,58,30.39,10.0,East,4.6,-,N/A,,Clear,90,2013-07-22 06:35:00
12:55 AM,59.0,41.0,51,30.39,10.0,SE,4.6,-,N/A,,Clear,130,2013-07-22 06:55:00
1:15 AM,57.2,41.0,55,30.39,10.0,SE,4.6,-,N/A,,Clear,130,2013-07-22 07:15:00
1:35 AM,55.4,41.0,58,30.39,10.0,SE,3.5,-,N/A,,Clear,140,2013-07-22 07:35:00
1:55 AM,55.4,41.0,58,30.39,10.0,Calm,Calm,-,N/A,,Clear,0,2013-07-22 07:55:00
2:15 AM,55.4,41.0,58,30.39,10.0,Calm,Calm,-,N/A,,Clear,0,2013-07-22 08:15:00
2:35 AM,55.4,39.2,54,30.39,10.0,Calm,Calm,-,N/A,,Clear,0,2013-07-22 08:35:00
2:55 AM,59.0,39.2,48,30.39,10.0,Calm,Calm,-,N/A,,Clear,0,2013-07-22 08:55:00
3:15 AM,57.2,41.0,55,30.40,10.0,SE,3.5,-,N/A,,Clear,130,2013-07-22 09:15:00
3:35 AM,55.4,41.0,58,30.40,10.0,Calm,Calm,-,N/A,,Clear,0,2013-07-22 09:35:00
3:55 AM,55.4,41.0,58,30.39,10.0,Calm,Calm,-,N/A,,Clear,0,2013-07-22 09:55:00
4:15 AM,57.2,41.0,55,30.40,10.0,ESE,3.5,-,N/A,,Clear,120,2013-07-22 10:15:00
4:35 AM,55.4,41.0,58,30.40,10.0,ESE,4.6,-,N/A,,Clear,120,2013-07-22 10:35:00
4:55 AM,55.4,41.0,58,30.40,10.0,ESE,4.6,-,N/A,,Clear,110,2013-07-22 10:55:00
5:15 AM,53.6,41.0,62,30.40,10.0,ESE,5.8,-,N/A,,Clear,120,2013-07-22 11:15:00
5:35 AM,53.6,41.0,62,30.40,10.0,ESE,5.8,-,N/A,,Clear,110,2013-07-22 11:35:00
5:55 AM,53.6,41.0,62,30.40,10.0,SE,5.8,-,N/A,,Clear,130,2013-07-22 11:55:00
6:15 AM,53.6,41.0,62,30.40,10.0,SE,6.9,-,N/A,,Clear,130,2013-07-22 12:15:00
6:35 AM,51.8,41.0,67,30.41,10.0,Calm,Calm,-,N/A,,Clear,0,2013-07-22 12:35:00
6:55 AM,53.6,41.0,62,30.41,10.0,ESE,4.6,-,N/A,,Clear,120,2013-07-22 12:55:00
7:35 AM,55.4,41.0,58,30.41,10.0,ESE,4.6,-,N/A,,Clear,120,2013-07-22 13:35:00
7:55 AM,57.2,41.0,55,30.42,10.0,Calm,Calm,-,N/A,,Clear,0,2013-07-22 13:55:00
8:35 AM,60.8,42.8,52,30.43,10.0,Calm,Calm,-,N/A,,Clear,0,2013-07-22 14:35:00
8:55 AM,62.6,42.8,48,30.43,10.0,Calm,Calm,-,N/A,,Clear,0,2013-07-22 14:55:00
9:15 AM,64.4,42.8,45,30.43,10.0,Calm,Calm,-,N/A,,Clear,0,2013-07-22 15:15:00
9:35 AM,66.2,41.0,40,30.43,10.0,Calm,Calm,-,N/A,,Clear,0,2013-07-22 15:35:00
9:55 AM,68.0,41.0,37,30.43,10.0,WSW,3.5,-,N/A,,Clear,240,2013-07-22 15:55:00
10:15 AM,69.8,41.0,35,30.42,10.0,South,3.5,-,N/A,,Clear,190,2013-07-22 16:15:00
10:35 AM,71.6,37.4,29,30.42,10.0,Calm,Calm,-,N/A,,Clear,0,2013-07-22 16:35:00
10:55 AM,71.6,37.4,29,30.42,10.0,WSW,4.6,-,N/A,,Clear,250,2013-07-22 16:55:00
11:15 AM,73.4,35.6,25,30.42,10.0,WSW,6.9,-,N/A,,Clear,250,2013-07-22 17:15:00
11:35 AM,75.2,35.6,24,30.42,10.0,WSW,6.9,-,N/A,,Clear,250,2013-07-22 17:35:00
11:55 AM,73.4,37.4,27,30.41,10.0,SW,5.8,-,N/A,,Clear,230,2013-07-22 17:55:00
12:15 PM,77.0,35.6,22,30.40,10.0,Calm,Calm,-,N/A,,Clear,0,2013-07-22 18:15:00
12:35 PM,77.0,33.8,21,30.40,10.0,WSW,6.9,-,N/A,,Clear,250,2013-07-22 18:35:00
12:55 PM,77.0,32.0,19,30.40,10.0,Calm,Calm,-,N/A,,Clear,0,2013-07-22 18:55:00
1:15 PM,78.8,33.8,20,30.38,10.0,NNE,3.5,-,N/A,,Clear,20,2013-07-22 19:15:00
1:35 PM,78.8,32.0,18,30.38,10.0,WNW,3.5,-,N/A,,Clear,300,2013-07-22 19:35:00
1:55 PM,80.6,32.0,17,30.37,10.0,NNW,5.8,-,N/A,,Clear,330,2013-07-22 19:55:00
2:15 PM,80.6,30.2,16,30.36,10.0,West,11.5,-,N/A,,Clear,280,2013-07-22 20:15:00
2:35 PM,78.8,32.0,18,30.36,10.0,West,8.1,-,N/A,,Scattered Clouds,280,2013-07-22 20:35:00
2:55 PM,77.0,35.6,22,30.36,10.0,NNW,4.6,20.7,N/A,,Scattered Clouds,340,2013-07-22 20:55:00
3:15 PM,78.8,35.6,21,30.36,10.0,North,6.9,-,N/A,,Clear,350,2013-07-22 21:15:00
3:35 PM,73.4,32.0,22,30.36,10.0,North,5.8,-,N/A,,Clear,10,2013-07-22 21:35:00
3:55 PM,73.4,32.0,22,30.36,10.0,Calm,Calm,-,N/A,,Clear,0,2013-07-22 21:55:00
4:15 PM,77.0,30.2,18,30.36,10.0,WNW,5.8,-,N/A,,Clear,300,2013-07-22 22:15:00
4:35 PM,77.0,32.0,19,30.36,10.0,Calm,Calm,-,N/A,,Clear,0,2013-07-22 22:35:00
4:55 PM,77.0,28.4,17,30.35,10.0,Calm,Calm,-,N/A,,Clear,0,2013-07-22 22:55:00
5:15 PM,77.0,30.2,18,30.35,10.0,North,3.5,-,N/A,,Clear,350,2013-07-22 23:15:00
5:35 PM,77.0,28.4,17,30.34,10.0,Calm,Calm,-,N/A,,Clear,0,2013-07-22 23:35:00
5:55 PM,77.0,26.6,16,30.34,10.0,Calm,Calm,-,N/A,,Clear,0,2013-07-22 23:55:00
6:15 PM,77.0,26.6,16,30.34,10.0,Calm,Calm,-,N/A,,Clear,0,2013-07-23 00:15:00
6:35 PM,77.0,28.4,17,30.34,10.0,North,3.5,-,N/A,,Clear,10,2013-07-23 00:35:00
6:55 PM,77.0,26.6,16,30.35,10.0,Calm,Calm,-,N/A,,Clear,0,2013-07-23 00:55:00
7:15 PM,75.2,26.6,17,30.36,10.0,Calm,Calm,-,N/A,,Clear,0,2013-07-23 01:15:00
7:35 PM,73.4,26.6,18,30.36,10.0,Calm,Calm,-,N/A,,Clear,0,2013-07-23 01:35:00
7:55 PM,71.6,30.2,22,30.36,10.0,Calm,Calm,-,N/A,,Clear,0,2013-07-23 01:55:00
8:15 PM,69.8,26.6,20,30.36,10.0,Calm,Calm,-,N/A,,Clear,0,2013-07-23 02:15:00
8:35 PM,69.8,24.8,18,30.36,10.0,Calm,Calm,-,N/A,,Clear,0,2013-07-23 02:35:00
8:55 PM,69.8,28.4,21,30.37,10.0,East,3.5,-,N/A,,Clear,100,2013-07-23 02:55:00
9:15 PM,68.0,30.2,24,30.38,10.0,Calm,Calm,-,N/A,,Clear,0,2013-07-23 03:15:00
9:35 PM,68.0,32.0,26,30.38,10.0,ESE,6.9,-,N/A,,Clear,120,2013-07-23 03:35:00
9:55 PM,64.4,32.0,30,30.40,10.0,East,4.6,-,N/A,,Clear,100,2013-07-23 03:55:00
10:15 PM,64.4,32.0,30,30.40,10.0,SE,6.9,-,N/A,,Clear,140,2013-07-23 04:15:00
10:35 PM,64.4,33.8,32,30.41,10.0,ESE,4.6,-,N/A,,Clear,120,2013-07-23 04:35:00
10:55 PM,62.6,33.8,34,30.42,10.0,SE,3.5,-,N/A,,Clear,130,2013-07-23 04:55:00
11:15 PM,62.6,32.0,32,30.42,10.0,ESE,4.6,-,N/A,,Clear,120,2013-07-23 05:15:00
11:35 PM,62.6,32.0,32,30.42,10.0,SE,5.8,-,N/A,,Clear,140,2013-07-23 05:35:00
11:55 PM,62.6,32.0,32,30.42,10.0,East,3.5,-,N/A,,Clear,90,2013-07-23 05:55:00